Location: Boiro
(42.6475°N, 8.8834°W)
Time: 00:31:08
(UTC+01:00)

Explorer 7 - Pass Details

Date: 09 December 2021
Orbit: 483 x 674 km, 50.3° (Epoch: 26 January)

Event Time Altitude Azimuth Distance (km) Brightness Sun altitude
Exits shadow 08:14:18 - 298° (WNW) 1,951 8.9 -7.3°
Reaches altitude 10° 08:14:31 10° 300° (WNW) 1,874 8.8 -7.2°
Maximum altitude 08:18:12 28° 360° (N) 1,058 8.1 -6.6°
Drops below altitude 10° 08:21:42 10° 60° (ENE) 1,774 9.9 -6.0°
Sets 08:24:06 0° 73° (ENE) 2,632 11.1 -5.7°
